[[{"header":{"parameterUnit":"m.s-1","parameterCategory":2,"la1":30.2991,"la2":30.254,"lo1":-89.0895,"lo2":-89.0444,"dy":0.0017,"dx":0.0017,"nx":28,"ny":28,"refTime":"2024-12-03T03:00:00:Z","depth":"0","parameterNumber":2,"parameterNumberName":"U-component_of_CURRENTS"},"data":[0,0,0,0,0,0,0,0,0,0,0,0,0,0,0,0,0,0,0,0,0,0,0,0,0,0,0,0,0,0,0,0,0,0,0,0,0,0,0,0,0,0,0,0,0,0,0,0,0,0,0,0,0,0,0,0,0,0,0.2043,0.2044,0,0.2097,0.2098,0.2098,0.2114,0.2114,0.2114,0.2114,0.2125,0.2125,0.2126,0,0,0,0,0,0,0,0,0,0,0,0,0,0.1941,0.1942,0.2043,0.2044,0.2044,0.2097,0.2098,0.2098,0.2114,0.2114,0.2114,0.2114,0.2125,0.2125,0.2126,0,0,0,0,0,0,0,0,0,0,0,0,0,0.1987,0.1943,0.2043,0.206,0.2062,0.2097,0.2098,0.2098,0.2114,0.2114,0.2114,0.2114,0.2125,0.2125,0.2126,0.2133,0,0,0.2128,0.2128,0,0,0,0,0,0,0,0,0.1985,0.1991,0.2057,0.2059,0.2062,0.21,0.2066,0.2108,0.2114,0.2093,0.2114,0.2114,0.2114,0.2115,0.2124,0.2134,0.2134,0.2128,0.2128,0.2128,0.2128,0,0,0,0,0,0,0,0.1981,0.1989,0.2063,0.2058,0.2061,0.2061,0.2067,0.2074,0.2101,0.2095,0.2096,0.2105,0.2115,0.2124,0.2124,0.2134,0.2128,0.2128,0.2129,0.2129,0.2169,0.217,0,0,0,0,0,0,0.1979,0.1986,0.2061,0.2064,0.2024,0.2063,0.207,0.2087,0.2102,0.2106,0.2105,0.2106,0.2123,0.2124,0.2125,0.2149,0.2128,0.2129,0.2129,0.2169,0.2169,0.217,0,0,0,0,0,0,0.1977,0.1986,0.2059,0.2027,0.2036,0.2065,0.2084,0.2088,0.21,0.2111,0.2113,0.2114,0.2122,0.2124,0.2139,0.2149,0.2129,0.213,0.2168,0.2169,0.217,0.2188,0,0,0,0,0,0,0.1974,0.1985,0.1993,0.2027,0.2038,0.2083,0.2084,0.2089,0.2106,0.2108,0.2119,0.212,0.2122,0.2138,0.214,0.2149,0.213,0.2167,0.2168,0.2169,0.2187,0.219,0.2192,0,0,0,0,0,0.197,0.1982,0.1993,0.2002,0.205,0.2083,0.2089,0.2107,0.2107,0.2116,0.2126,0.212,0.2148,0.2139,0.2141,0.2151,0.2166,0.2168,0.2169,0.2185,0.2189,0.2192,0,0,0,0,0,0,0.1936,0.1986,0.1999,0.2024,0.2054,0.2087,0.2096,0.2109,0.2125,0.2124,0.2129,0.2131,0.2149,0.2148,0.2139,0.2167,0.2156,0.2158,0.2167,0.2171,0.2174,0.218,0.2131,0,0,0,0,0,0.1935,0.196,0.2002,0.2021,0.2037,0.2066,0.2081,0.2097,0.2118,0.2125,0.2133,0.2143,0.2157,0.2162,0.2173,0.2187,0.2202,0.2194,0.2197,0.22,0.2207,0.2231,0.2236,0.2175,0.2175,0.2175,0,0,0.1924,0.1956,0.1968,0.2016,0.2039,0.2067,0.2074,0.2101,0.2123,0.2122,0.2146,0.2153,0.2164,0.2183,0.219,0.2183,0.223,0.2202,0.2204,0.221,0.2233,0.2239,0.2244,0.2177,0.2176,0.2176,0,0,0.192,0.1947,0.1968,0.1998,0.204,0.2065,0.2073,0.2111,0.2125,0.2151,0.2158,0.2174,0.2189,0.2204,0.2212,0.2237,0.2245,0.2237,0.2255,0.2279,0.2284,0.2289,0.2336,0.2344,0.2237,0.2237,0.2237,0,0.1903,0.1943,0.1977,0.2007,0.2031,0.2064,0.209,0.2114,0.215,0.2166,0.2159,0.2198,0.2202,0.2235,0.2244,0.2243,0.2265,0.224,0.2282,0.2287,0.2292,0.2339,0.2348,0.2238,0.2238,0.2238,0.2238,0,0.1921,0.1952,0.1965,0.2019,0.2048,0.2075,0.2118,0.2144,0.2161,0.2185,0.2218,0.2228,0.2253,0.2255,0.2257,0.2294,0.2304,0.2284,0.2273,0.2299,0.2347,0.2356,0.224,0.2239,0.2239,0.2239,0,0,0.1887,0.1962,0.1968,0.1998,0.2058,0.2086,0.2126,0.2175,0.2207,0.2229,0.2266,0.2285,0.2292,0.2303,0.2307,0.2324,0.2378,0.2319,0.2319,0.2365,0.2452,0.2538,0.2557,0.2363,0.2364,0.2365,0.248,0,0.189,0.1948,0.1984,0.2033,0.2068,0.2112,0.2149,0.2197,0.2232,0.2276,0.2293,0.2328,0.2311,0.2328,0.2342,0.2372,0.2401,0.235,0.2421,0.2424,0.2496,0.2569,0.2528,0.2634,0.2489,0.2491,0.2492,0,0.1896,0.194,0.1988,0.2058,0.2075,0.2104,0.2177,0.2214,0.2281,0.2309,0.2346,0.2368,0.2414,0.2384,0.2451,0.2421,0.2442,0.2457,0.2461,0.2541,0.2527,0.2581,0.2656,0.2611,0.2506,0.2505,0.2504,0,0.1868,0.194,0.1979,0.2004,0.2086,0.2109,0.2149,0.2219,0.2266,0.2335,0.2379,0.2424,0.2469,0.2486,0.2545,0.2494,0.2628,0.2558,0.2658,0.2664,0.2645,0.2649,0.2684,0.2603,0.2603,0.2603,0.2603,0,0.1863,0.1894,0.1969,0.1992,0.2037,0.2096,0.215,0.2196,0.2281,0.2352,0.2391,0.2474,0.2495,0.258,0.2587,0.2694,0.267,0.2694,0.2709,0.2655,0.2657,0.2629,0.2598,0.2607,0.2606,0.2605,0.2605,0,0.1827,0.1877,0.1923,0.2002,0.2024,0.2053,0.2146,0.2193,0.2276,0.2373,0.2403,0.2533,0.2661,0.271,0.2783,0.2782,0.2798,0.2883,0.2845,0.2854,0.2874,0.2846,0.2802,0.2705,0.299,0.2993,0.2995,0,0.1812,0.1835,0.1911,0.1935,0.1965,0.2025,0.2068,0.2168,0.2236,0.2427,0.248,0.265,0.2764,0.2938,0.2996,0.3065,0.2937,0.3059,0.2946,0.2912,0.289,0.2732,0.2637,0.2927,0.2928,0.293,0.2931,0,0.1776,0.1801,0.1836,0.189,0.1931,0.1988,0.2065,0.2116,0.226,0.2355,0.2517,0.2628,0.2876,0.2975,0.3126,0.3149,0.2946,0.3092,0.3043,0.2859,0.2698,0.2599,0.283,0.2944,0.2942,0.2941,0.2941,0.294,0.1727,0.174,0.1786,0.183,0.1879,0.1924,0.1942,0.2054,0.2144,0.2287,0.2469,0.2621,0.2893,0.3111,0.313,0.3185,0.3067,0.3094,0.3071,0.2918,0.2799,0.3098,0.3237,0.3238,0.3238,0.3238,0.3239,0,0.1658,0.1686,0.1726,0.1764,0.1787,0.1846,0.1922,0.194,0.201,0.2215,0.2347,0.2637,0.2833,0.3028,0.3226,0.3164,0.2941,0.3091,0.2819,0.2726,0.3,0.2974,0.308,0.308,0.308,0.308,0.308,0.308,0.1617,0.1623,0.1653,0.166,0.169,0.1692,0.1711,0.1759,0.1882,0.205,0.223,0.2418,0.2842,0.3198,0.3257,0.3165,0.2874,0.2809,0.2721,0.2912,0.2906,0.2901,0.2868,0.295,0.2949,0.2314,0.231,0.2307]},{"header":{"parameterUnit":"m.s-1","parameterCategory":2,"la1":30.2991,"la2":30.254,"lo1":-89.0895,"lo2":-89.0444,"dy":0.0017,"dx":0.0017,"nx":28,"ny":28,"refTime":"2024-12-03T03:00:00:Z","depth":"0","parameterNumber":3,"parameterNumberName":"V-component_of_CURRENTS"},"data":[0,0,0,0,0,0,0,0,0,0,0,0,0,0,0,0,0,0,0,0,0,0,0,0,0,0,0,0,0,0,0,0,0,0,0,0,0,0,0,0,0,0,0,0,0,0,0,0,0,0,0,0,0,0,0,0,0,0,-0.0588,-0.0589,0,-0.066,-0.0661,-0.0662,-0.0705,-0.0705,-0.0705,-0.0705,-0.0811,-0.0814,-0.0816,0,0,0,0,0,0,0,0,0,0,0,0,0,-0.0519,-0.052,-0.0588,-0.0589,-0.0589,-0.066,-0.0661,-0.0662,-0.0705,-0.0705,-0.0705,-0.0705,-0.081,-0.0813,-0.0817,0,0,0,0,0,0,0,0,0,0,0,0,0,-0.0566,-0.052,-0.0588,-0.0619,-0.0622,-0.066,-0.0661,-0.0662,-0.0705,-0.0705,-0.0705,-0.0705,-0.0809,-0.0813,-0.0817,-0.0837,0,0,-0.0829,-0.0831,0,0,0,0,0,0,0,0,-0.0563,-0.0569,-0.0613,-0.0617,-0.0621,-0.0673,-0.0676,-0.0723,-0.0705,-0.0674,-0.0705,-0.0706,-0.0768,-0.0775,-0.0788,-0.0842,-0.0847,-0.083,-0.0832,-0.0834,-0.0835,0,0,0,0,0,0,0,-0.056,-0.0566,-0.0617,-0.0614,-0.0619,-0.0641,-0.0647,-0.0685,-0.072,-0.0677,-0.068,-0.0687,-0.077,-0.0784,-0.0791,-0.0848,-0.083,-0.0833,-0.0836,-0.0837,-0.0927,-0.0926,0,0,0,0,0,0,-0.0548,-0.0563,-0.0615,-0.0619,-0.0592,-0.0641,-0.0649,-0.0657,-0.0719,-0.0728,-0.0687,-0.0689,-0.0777,-0.0787,-0.0795,-0.0826,-0.0834,-0.0838,-0.084,-0.0927,-0.0927,-0.0926,0,0,0,0,0,0,-0.0547,-0.0552,-0.0612,-0.0592,-0.0601,-0.0642,-0.0651,-0.0658,-0.0672,-0.0726,-0.0736,-0.0694,-0.0778,-0.079,-0.0826,-0.083,-0.0839,-0.0843,-0.0927,-0.0927,-0.0926,-0.0885,0,0,0,0,0,0,-0.0544,-0.0551,-0.0553,-0.0591,-0.0602,-0.063,-0.0651,-0.0659,-0.0676,-0.068,-0.0735,-0.0745,-0.0779,-0.0819,-0.083,-0.0836,-0.0846,-0.0927,-0.0927,-0.0927,-0.0886,-0.0883,-0.0881,0,0,0,0,0,-0.0542,-0.0541,-0.0552,-0.0559,-0.0602,-0.063,-0.0638,-0.0668,-0.0676,-0.0682,-0.0717,-0.0743,-0.0826,-0.0823,-0.0835,-0.0842,-0.0927,-0.0927,-0.0927,-0.0888,-0.0884,-0.0881,0,0,0,0,0,0,-0.0512,-0.0547,-0.0559,-0.057,-0.0596,-0.0637,-0.0644,-0.0664,-0.0696,-0.0699,-0.0746,-0.0759,-0.0792,-0.082,-0.0815,-0.0866,-0.088,-0.0882,-0.0846,-0.0843,-0.0841,-0.0834,-0.085,0,0,0,0,0,-0.0505,-0.0515,-0.0551,-0.0559,-0.0568,-0.0604,-0.0619,-0.064,-0.0673,-0.0687,-0.0724,-0.0763,-0.0801,-0.0823,-0.0859,-0.0889,-0.0918,-0.09,-0.0898,-0.0895,-0.0898,-0.0951,-0.0953,-0.0926,-0.0926,-0.0926,0,0,-0.0497,-0.0517,-0.0523,-0.0553,-0.0574,-0.0587,-0.0613,-0.0632,-0.0647,-0.0694,-0.072,-0.0756,-0.0806,-0.0838,-0.0856,-0.0864,-0.0913,-0.0895,-0.0893,-0.0897,-0.0951,-0.0954,-0.0956,-0.0926,-0.0926,-0.0926,0,0,-0.0482,-0.05,-0.0501,-0.0519,-0.0547,-0.0572,-0.0574,-0.0612,-0.0631,-0.0661,-0.0698,-0.0734,-0.0788,-0.0827,-0.0853,-0.0857,-0.0895,-0.0866,-0.0852,-0.0903,-0.0906,-0.0909,-0.0926,-0.0931,-0.0867,-0.0866,-0.0866,0,-0.0468,-0.0476,-0.0506,-0.0509,-0.052,-0.0561,-0.0563,-0.0591,-0.0636,-0.0651,-0.0663,-0.0745,-0.0785,-0.0833,-0.0834,-0.0853,-0.0876,-0.086,-0.09,-0.0904,-0.0908,-0.0925,-0.093,-0.0864,-0.0865,-0.0865,-0.0865,0,-0.0455,-0.046,-0.0459,-0.0479,-0.0496,-0.0504,-0.0543,-0.0562,-0.0588,-0.0618,-0.0664,-0.0721,-0.0769,-0.0787,-0.0815,-0.086,-0.0864,-0.0888,-0.0907,-0.0908,-0.0925,-0.0932,-0.0862,-0.0862,-0.0863,-0.0863,0,0,-0.0423,-0.0446,-0.0444,-0.0441,-0.0479,-0.0487,-0.0512,-0.0545,-0.0551,-0.0607,-0.0626,-0.07,-0.0729,-0.0761,-0.0804,-0.0851,-0.089,-0.0877,-0.0881,-0.0891,-0.098,-0.0916,-0.0918,-0.0925,-0.0926,-0.0927,-0.0973,0,-0.04,-0.0394,-0.0419,-0.0411,-0.0408,-0.045,-0.0462,-0.0498,-0.0536,-0.0563,-0.0637,-0.0669,-0.0721,-0.0737,-0.0798,-0.0867,-0.091,-0.0874,-0.0981,-0.0984,-0.0926,-0.0925,-0.0891,-0.0924,-0.098,-0.0981,-0.0982,0,-0.0374,-0.0373,-0.0359,-0.0364,-0.0366,-0.0368,-0.0391,-0.041,-0.0468,-0.0496,-0.0558,-0.0611,-0.069,-0.0727,-0.0862,-0.0836,-0.0905,-0.096,-0.0964,-0.0927,-0.0933,-0.0939,-0.0935,-0.1113,-0.0993,-0.0992,-0.0992,0,-0.0323,-0.0327,-0.0311,-0.0314,-0.033,-0.0327,-0.034,-0.0383,-0.0378,-0.0451,-0.0447,-0.057,-0.0593,-0.073,-0.0836,-0.0858,-0.0965,-0.1013,-0.102,-0.1016,-0.1019,-0.1012,-0.12,-0.1109,-0.1109,-0.1109,-0.1109,0,-0.0282,-0.0263,-0.0278,-0.0264,-0.0228,-0.0269,-0.0238,-0.0272,-0.0297,-0.0259,-0.04,-0.0381,-0.0594,-0.0674,-0.0814,-0.0915,-0.0951,-0.1014,-0.1028,-0.0999,-0.0989,-0.1169,-0.128,-0.111,-0.111,-0.111,-0.1109,0,-0.0214,-0.0232,-0.02,-0.0204,-0.0196,-0.0168,-0.0144,-0.0116,-0.0164,-0.0119,-0.0131,-0.0234,-0.0328,-0.0522,-0.0709,-0.0837,-0.1061,-0.0999,-0.0926,-0.0931,-0.1111,-0.1218,-0.1414,-0.1481,-0.1038,-0.1036,-0.1035,0,-0.0175,-0.0155,-0.0133,-0.0095,-0.0086,-0.0049,-0.0006,-0.0038,0.0009,0.0005,0.0053,-0.0034,-0.0041,-0.0301,-0.0556,-0.0788,-0.0983,-0.0917,-0.0965,-0.1111,-0.1244,-0.1334,-0.1384,-0.0953,-0.0952,-0.095,-0.0949,0,-0.0091,-0.0086,-0.0057,0.0021,0.0076,0.0138,0.0198,0.0258,0.0255,0.0302,0.0372,0.036,0.0131,-0.0073,-0.04,-0.0589,-0.104,-0.0893,-0.1094,-0.1227,-0.1294,-0.1366,-0.0914,-0.0937,-0.0939,-0.0939,-0.094,-0.0941,-0.0015,0.0029,0.0074,0.0154,0.0223,0.0329,0.041,0.0492,0.0599,0.07,0.0659,0.0698,0.034,-0.0091,-0.0375,-0.0887,-0.0924,-0.1056,-0.1181,-0.1263,-0.1317,-0.0804,-0.0809,-0.0809,-0.081,-0.081,-0.081,0,0.009,0.0133,0.0208,0.0306,0.0412,0.0418,0.0557,0.0656,0.0826,0.0929,0.1002,0.0875,0.044,-0.0057,-0.0731,-0.111,-0.1295,-0.1348,-0.1519,-0.1562,-0.1149,-0.1133,-0.1149,-0.1149,-0.1148,-0.1148,-0.1148,-0.1148,0.015,0.0245,0.0279,0.0462,0.0537,0.0691,0.0785,0.093,0.1041,0.1212,0.1263,0.1251,0.0878,-0.0395,-0.1266,-0.1491,-0.181,-0.1857,-0.2013,-0.1786,-0.177,-0.1755,-0.1768,-0.1916,-0.1917,-0.237,-0.2374,-0.2378]}],[{"header":{"parameterUnit":"m.s-1","parameterCategory":2,"la1":30.2991,"la2":30.254,"lo1":-89.0895,"lo2":-89.0444,"dy":0.0017,"dx":0.0017,"nx":28,"ny":28,"refTime":"2024-12-03T03:00:00:Z","depth":"2","parameterNumber":2,"parameterNumberName":"U-component_of_CURRENTS"},"data":[0,0,0,0,0,0,0,0,0,0,0,0,0,0,0,0,0,0,0,0,0,0,0,0,0,0,0,0,0,0,0,0,0,0,0,0,0,0,0,0,0,0,0,0,0,0,0,0,0,0,0,0,0,0,0,0,0,0,0.1884,0.1885,0,0.1942,0.1943,0.1943,0.1961,0.1961,0.1961,0.1961,0.1981,0.1982,0.1983,0,0,0,0,0,0,0,0,0,0,0,0,0,0.179,0.1791,0.1884,0.1885,0.1886,0.1942,0.1943,0.1943,0.1961,0.1961,0.1961,0.1961,0.1981,0.1982,0.1983,0,0,0,0,0,0,0,0,0,0,0,0,0,0.1835,0.1792,0.1884,0.1904,0.1907,0.1942,0.1943,0.1943,0.1961,0.1961,0.1961,0.1961,0.1981,0.1982,0.1983,0.1988,0,0,0.1985,0.1986,0,0,0,0,0,0,0,0,0.1832,0.1838,0.19,0.1903,0.1906,0.1947,0.1917,0.1957,0.1961,0.1938,0.1961,0.1961,0.1968,0.197,0.1978,0.1989,0.199,0.1985,0.1986,0.1986,0.1986,0,0,0,0,0,0,0,0.1829,0.1836,0.1904,0.1901,0.1905,0.191,0.1916,0.1925,0.1949,0.194,0.1942,0.1953,0.1969,0.1977,0.1978,0.199,0.1985,0.1986,0.1987,0.1987,0.2041,0.2041,0,0,0,0,0,0,0.1828,0.1833,0.1903,0.1906,0.1871,0.1912,0.1919,0.1931,0.195,0.1954,0.1953,0.1953,0.1975,0.1977,0.1979,0.2015,0.1986,0.1987,0.1987,0.204,0.2041,0.2042,0,0,0,0,0,0,0.1826,0.1834,0.19,0.1873,0.1882,0.1914,0.1928,0.1933,0.1948,0.1961,0.1964,0.1964,0.1976,0.1978,0.1999,0.2014,0.1987,0.1988,0.2039,0.204,0.2041,0.2068,0,0,0,0,0,0,0.1823,0.1832,0.1842,0.1873,0.1884,0.1926,0.1928,0.1934,0.1955,0.1957,0.1972,0.1973,0.1976,0.1998,0.2,0.2015,0.1989,0.2037,0.2039,0.2041,0.2066,0.207,0.2073,0,0,0,0,0,0.1819,0.1831,0.1842,0.1851,0.1896,0.1927,0.1933,0.1954,0.1956,0.1966,0.198,0.1973,0.2011,0.2,0.2002,0.2017,0.2037,0.2039,0.2041,0.2064,0.2069,0.2073,0,0,0,0,0,0,0.1791,0.1835,0.1848,0.1872,0.1901,0.1932,0.1945,0.1958,0.1977,0.1979,0.1985,0.1988,0.2015,0.2013,0.2,0.2039,0.2022,0.2025,0.2039,0.2044,0.2048,0.2057,0.1989,0,0,0,0,0,0.1792,0.1814,0.1853,0.1872,0.1888,0.1917,0.1933,0.1949,0.1971,0.198,0.1991,0.2005,0.2024,0.2031,0.2046,0.2063,0.2079,0.2075,0.2079,0.2082,0.2092,0.2124,0.2132,0.2049,0.2049,0.2049,0,0,0.1784,0.1814,0.1825,0.1868,0.1891,0.1921,0.1926,0.1955,0.1978,0.1979,0.2008,0.2021,0.2033,0.2059,0.207,0.2059,0.2117,0.2085,0.2087,0.2096,0.2127,0.2135,0.2143,0.205,0.205,0.205,0,0,0.1784,0.181,0.183,0.1858,0.1902,0.1925,0.1935,0.1972,0.1987,0.2017,0.2028,0.205,0.2071,0.2088,0.2098,0.2131,0.2139,0.2134,0.2158,0.2189,0.2196,0.2203,0.2245,0.2255,0.2132,0.2133,0.2133,0,0.1774,0.1809,0.1839,0.1869,0.1895,0.1927,0.1955,0.1978,0.2017,0.2038,0.2029,0.2084,0.2087,0.213,0.2142,0.2139,0.2165,0.2138,0.2195,0.2201,0.2207,0.2249,0.226,0.2134,0.2134,0.2134,0.2134,0,0.1792,0.1822,0.1837,0.1889,0.1918,0.1947,0.1989,0.2019,0.2039,0.2066,0.2112,0.2122,0.2157,0.2159,0.2159,0.2209,0.2217,0.2198,0.2182,0.2217,0.2259,0.227,0.2136,0.2136,0.2135,0.2135,0,0,0.1763,0.1834,0.1842,0.1871,0.1932,0.196,0.2005,0.206,0.2098,0.2126,0.2172,0.2198,0.2212,0.2224,0.2229,0.225,0.2311,0.2245,0.2246,0.2286,0.2399,0.241,0.2422,0.2305,0.2307,0.2308,0.2415,0,0.1768,0.1823,0.1859,0.1912,0.1944,0.1994,0.2036,0.209,0.213,0.2183,0.2207,0.225,0.2234,0.2254,0.2277,0.2306,0.2339,0.2285,0.236,0.2362,0.2366,0.2434,0.2264,0.2345,0.2425,0.2427,0.2428,0,0.1774,0.1815,0.1863,0.1937,0.1955,0.1989,0.2072,0.2115,0.2196,0.2229,0.228,0.2306,0.2358,0.2327,0.2403,0.2373,0.2395,0.2408,0.2412,0.242,0.2393,0.2321,0.2362,0.2446,0.2445,0.2443,0.2442,0,0.1743,0.1816,0.1854,0.188,0.1966,0.1997,0.2044,0.2127,0.218,0.2262,0.2314,0.2371,0.2418,0.2444,0.2493,0.245,0.2582,0.2519,0.2553,0.2554,0.2424,0.2411,0.2577,0.2577,0.2577,0.2576,0.2576,0,0.1735,0.1767,0.1843,0.1866,0.192,0.1983,0.2048,0.2107,0.2204,0.2277,0.2334,0.2405,0.2451,0.2533,0.2538,0.2609,0.2625,0.2585,0.2591,0.243,0.2417,0.2506,0.2496,0.258,0.2579,0.2579,0.2578,0,0.1694,0.1744,0.1792,0.1878,0.1905,0.1942,0.2048,0.2098,0.2198,0.2297,0.233,0.2461,0.256,0.2624,0.2695,0.2686,0.2729,0.2749,0.2574,0.2557,0.2662,0.2652,0.2772,0.2774,0.2775,0.2776,0.2777,0,0.1678,0.1698,0.1784,0.1808,0.1843,0.191,0.1957,0.2075,0.2139,0.2327,0.2373,0.2523,0.2601,0.2744,0.2772,0.282,0.2812,0.268,0.2553,0.2693,0.2686,0.2674,0.2663,0.2391,0.2388,0.2387,0.2385,0,0.1643,0.167,0.1708,0.1761,0.1807,0.1861,0.1942,0.1994,0.2142,0.2233,0.2362,0.2443,0.2628,0.262,0.2733,0.272,0.265,0.2642,0.2847,0.2375,0.2344,0.2333,0.2333,0.2368,0.2369,0.2371,0.2372,0.2372,0.1604,0.1615,0.1661,0.1703,0.1754,0.1788,0.1807,0.1906,0.1992,0.2121,0.2262,0.2338,0.2449,0.2519,0.2495,0.2491,0.2634,0.2502,0.2502,0.2506,0.2451,0.2424,0.2453,0.2455,0.2457,0.2459,0.246,0,0.1539,0.1561,0.16,0.1639,0.1655,0.1713,0.178,0.1789,0.1844,0.2,0.2097,0.2032,0.2096,0.219,0.2178,0.222,0.2138,0.2118,0.1981,0.2005,0.2024,0.1936,0.1805,0.1802,0.18,0.1797,0,0,0.15,0.1502,0.1525,0.1527,0.1555,0.1554,0.1568,0.1599,0.1687,0.1725,0.1782,0.1999,0.2137,0.1922,0.1944,0.1863,0.1894,0.18,0.2341,0.2204,0.2218,0.2286,0.2185,0,0,0,0,0]},{"header":{"parameterUnit":"m.s-1","parameterCategory":2,"la1":30.2991,"la2":30.254,"lo1":-89.0895,"lo2":-89.0444,"dy":0.0017,"dx":0.0017,"nx":28,"ny":28,"refTime":"2024-12-03T03:00:00:Z","depth":"2","parameterNumber":3,"parameterNumberName":"V-component_of_CURRENTS"},"data":[0,0,0,0,0,0,0,0,0,0,0,0,0,0,0,0,0,0,0,0,0,0,0,0,0,0,0,0,0,0,0,0,0,0,0,0,0,0,0,0,0,0,0,0,0,0,0,0,0,0,0,0,0,0,0,0,0,0,-0.0174,-0.0175,0,-0.0245,-0.0246,-0.0246,-0.0302,-0.0303,-0.0303,-0.0304,-0.0415,-0.0417,-0.042,0,0,0,0,0,0,0,0,0,0,0,0,0,-0.0133,-0.0133,-0.0174,-0.0175,-0.0176,-0.0245,-0.0246,-0.0247,-0.0302,-0.0303,-0.0303,-0.0304,-0.0414,-0.0417,-0.042,0,0,0,0,0,0,0,0,0,0,0,0,0,-0.0172,-0.0133,-0.0174,-0.0212,-0.0216,-0.0244,-0.0246,-0.0247,-0.0302,-0.0303,-0.0303,-0.0304,-0.0413,-0.0417,-0.042,-0.0427,0,0,-0.0431,-0.0433,0,0,0,0,0,0,0,0,-0.0169,-0.0173,-0.0205,-0.0209,-0.0214,-0.0265,-0.0272,-0.0309,-0.0302,-0.0269,-0.0304,-0.0305,-0.0368,-0.0375,-0.0386,-0.0432,-0.0437,-0.0432,-0.0434,-0.0436,-0.0437,0,0,0,0,0,0,0,-0.0166,-0.0171,-0.0202,-0.0206,-0.0211,-0.0241,-0.0247,-0.0279,-0.0314,-0.0272,-0.0276,-0.0284,-0.0371,-0.0383,-0.0389,-0.0438,-0.0432,-0.0435,-0.0437,-0.0439,-0.0531,-0.0532,0,0,0,0,0,0,-0.0154,-0.0168,-0.02,-0.0204,-0.0193,-0.0241,-0.0248,-0.0248,-0.0313,-0.0323,-0.0283,-0.0286,-0.0376,-0.0385,-0.0394,-0.0426,-0.0436,-0.0439,-0.0441,-0.0531,-0.0532,-0.0532,0,0,0,0,0,0,-0.0153,-0.0156,-0.0197,-0.0188,-0.0195,-0.024,-0.0241,-0.0249,-0.0268,-0.0321,-0.0332,-0.0294,-0.0377,-0.0388,-0.0427,-0.043,-0.0441,-0.0444,-0.0531,-0.0531,-0.0532,-0.0477,0,0,0,0,0,0,-0.0151,-0.0155,-0.0154,-0.0187,-0.0195,-0.0212,-0.024,-0.025,-0.0271,-0.0276,-0.0334,-0.0345,-0.0378,-0.0421,-0.0431,-0.0435,-0.0447,-0.0531,-0.0531,-0.0532,-0.0478,-0.0475,-0.0473,0,0,0,0,0,-0.0149,-0.0141,-0.0153,-0.0157,-0.0191,-0.0211,-0.0218,-0.0254,-0.027,-0.0274,-0.0316,-0.0343,-0.0431,-0.0424,-0.0435,-0.0441,-0.053,-0.0531,-0.0532,-0.0479,-0.0476,-0.0473,0,0,0,0,0,0,-0.0123,-0.0147,-0.0161,-0.0161,-0.0184,-0.0221,-0.0228,-0.0251,-0.0286,-0.0296,-0.0344,-0.0358,-0.0396,-0.0424,-0.0415,-0.047,-0.0486,-0.0489,-0.0443,-0.044,-0.0437,-0.0433,-0.045,0,0,0,0,0,-0.0114,-0.0116,-0.0145,-0.0146,-0.0154,-0.0191,-0.0205,-0.0228,-0.0263,-0.0279,-0.032,-0.0365,-0.0405,-0.0426,-0.0466,-0.0491,-0.0518,-0.0503,-0.05,-0.0498,-0.0502,-0.0549,-0.055,-0.0534,-0.0534,-0.0534,0,0,-0.0105,-0.0119,-0.0121,-0.0141,-0.0161,-0.0168,-0.0201,-0.022,-0.0228,-0.0286,-0.0312,-0.0359,-0.0411,-0.0443,-0.0462,-0.0467,-0.0512,-0.0498,-0.0495,-0.0502,-0.055,-0.0551,-0.0553,-0.0534,-0.0534,-0.0534,0,0,-0.0083,-0.0098,-0.0091,-0.0106,-0.0133,-0.0154,-0.0157,-0.0195,-0.0214,-0.0245,-0.0291,-0.0337,-0.0392,-0.043,-0.0456,-0.0462,-0.0498,-0.0476,-0.0455,-0.05,-0.0501,-0.0503,-0.0516,-0.052,-0.0471,-0.0471,-0.0471,0,-0.0072,-0.0065,-0.0093,-0.009,-0.0097,-0.0143,-0.0136,-0.0162,-0.021,-0.0227,-0.0248,-0.0343,-0.0386,-0.043,-0.0436,-0.0455,-0.0478,-0.046,-0.0495,-0.0498,-0.05,-0.0514,-0.0518,-0.0468,-0.0468,-0.0469,-0.0469,0,-0.0043,-0.0042,-0.0039,-0.0049,-0.0059,-0.0063,-0.0096,-0.012,-0.0152,-0.0185,-0.0239,-0.0302,-0.0359,-0.0381,-0.0413,-0.0455,-0.0462,-0.0486,-0.0499,-0.0499,-0.0513,-0.0518,-0.0464,-0.0465,-0.0466,-0.0467,0,0,-0.0008,-0.0015,-0.0017,-0.0007,-0.0037,-0.0038,-0.0057,-0.0084,-0.0093,-0.0159,-0.0175,-0.0262,-0.0307,-0.0341,-0.0389,-0.0432,-0.0466,-0.0466,-0.0469,-0.047,-0.0545,-0.0518,-0.0522,-0.0499,-0.05,-0.0501,-0.0537,0,0.0023,0.0046,0.0028,0.0048,0.006,0.0017,0.0008,-0.0029,-0.0065,-0.0094,-0.0178,-0.0218,-0.0286,-0.0311,-0.0369,-0.0443,-0.0483,-0.0453,-0.0554,-0.0556,-0.0526,-0.0529,-0.0508,-0.0537,-0.0543,-0.0544,-0.0544,0,0.0058,0.007,0.0098,0.0105,0.0106,0.0102,0.0085,0.0071,0.0008,-0.0023,-0.0091,-0.015,-0.0231,-0.0281,-0.0416,-0.0395,-0.0469,-0.0527,-0.053,-0.0533,-0.0541,-0.0545,-0.0548,-0.0555,-0.0554,-0.0553,-0.0552,0,0.0107,0.0122,0.015,0.015,0.0143,0.014,0.0128,0.0084,0.0088,0.002,0.0016,-0.0099,-0.0139,-0.0265,-0.0392,-0.0409,-0.0524,-0.0558,-0.0603,-0.06,-0.0617,-0.0614,-0.0655,-0.0654,-0.0654,-0.0654,-0.0654,0,0.0151,0.0174,0.0173,0.0185,0.0218,0.019,0.0213,0.0177,0.0151,0.0177,0.0055,0.0062,-0.0141,-0.0225,-0.0361,-0.0487,-0.0503,-0.06,-0.0615,-0.0594,-0.0588,-0.0639,-0.0637,-0.0656,-0.0655,-0.0655,-0.0655,0,0.0202,0.0197,0.0234,0.0236,0.0241,0.0262,0.028,0.0301,0.0255,0.0289,0.0273,0.0177,0.0071,-0.0113,-0.0296,-0.0422,-0.0559,-0.0601,-0.0544,-0.0553,-0.0613,-0.0607,-0.0659,-0.0658,-0.0658,-0.0657,-0.0657,0,0.0229,0.0251,0.0279,0.0311,0.0313,0.0344,0.0371,0.0347,0.0389,0.0384,0.042,0.0322,0.0286,0.0025,-0.0223,-0.045,-0.0502,-0.0577,-0.0617,-0.0607,-0.0617,-0.0612,-0.0607,-0.061,-0.0609,-0.0609,-0.0608,0,0.0283,0.0288,0.0318,0.0382,0.0421,0.0485,0.0529,0.0579,0.0578,0.0605,0.0645,0.0611,0.0374,0.0147,-0.0173,-0.0332,-0.0545,-0.057,-0.0592,-0.0603,-0.0562,-0.0571,-0.0568,-0.0603,-0.0604,-0.0604,-0.0605,-0.0605,0.0321,0.0359,0.0396,0.0464,0.0521,0.0615,0.0679,0.0746,0.082,0.0876,0.0839,0.0799,0.0518,0.0128,-0.0161,-0.0474,-0.0473,-0.0593,-0.0595,-0.0598,-0.0577,-0.0537,-0.0568,-0.0568,-0.0568,-0.0568,-0.0569,0,0.0378,0.0419,0.0482,0.0563,0.0646,0.0663,0.0783,0.0856,0.0967,0.1014,0.1035,0.0805,0.0532,0.0215,-0.0239,-0.0514,-0.0563,-0.0599,-0.0607,-0.0609,-0.0612,-0.0593,-0.0588,-0.0589,-0.0589,-0.059,0,0,0.0409,0.0482,0.0517,0.0656,0.072,0.0843,0.092,0.1021,0.1087,0.1146,0.1128,0.1045,0.0652,0.033,-0.0058,-0.032,-0.0403,-0.0375,-0.0331,-0.0299,-0.0298,-0.0581,-0.055,0,0,0,0,0]}],[{"header":{"parameterUnit":"m.s-1","parameterCategory":2,"la1":30.2991,"la2":30.254,"lo1":-89.0895,"lo2":-89.0444,"dy":0.0017,"dx":0.0017,"nx":28,"ny":28,"refTime":"2024-12-03T03:00:00:Z","depth":"4","parameterNumber":2,"parameterNumberName":"U-component_of_CURRENTS"},"data":[0,0,0,0,0,0,0,0,0,0,0,0,0,0,0,0,0,0,0,0,0,0,0,0,0,0,0,0,0,0,0,0,0,0,0,0,0,0,0,0,0,0,0,0,0,0,0,0,0,0,0,0,0,0,0,0,0,0,0.106,0.1061,0,0.1111,0.1112,0.1112,0.1157,0.1158,0.1159,0.1159,0.1243,0.1244,0.1246,0,0,0,0,0,0,0,0,0,0,0,0,0,0.0976,0.0978,0.106,0.1061,0.1062,0.1111,0.1112,0.1112,0.1157,0.1158,0.1159,0.116,0.1242,0.1244,0.1246,0,0,0,0,0,0,0,0,0,0,0,0,0,0.1017,0.0978,0.106,0.1091,0.1095,0.1111,0.1112,0.1112,0.1157,0.1158,0.1159,0.116,0.1241,0.1244,0.1246,0.124,0,0,0.1253,0.1254,0,0,0,0,0,0,0,0,0.1015,0.102,0.1086,0.1089,0.1093,0.1131,0.1113,0.1157,0.1157,0.1132,0.116,0.1161,0.1208,0.1213,0.1218,0.1244,0.1247,0.1253,0.1255,0.1256,0.1257,0,0,0,0,0,0,0,0.1012,0.1018,0.1079,0.1087,0.1091,0.1094,0.1101,0.1121,0.1163,0.1134,0.1138,0.1146,0.1211,0.1215,0.122,0.1249,0.1253,0.1255,0.1257,0.1258,0.135,0.1351,0,0,0,0,0,0,0.1009,0.1015,0.1077,0.108,0.1058,0.1095,0.1103,0.1116,0.1162,0.117,0.1145,0.1148,0.1211,0.1218,0.1224,0.1302,0.1256,0.1258,0.1259,0.1349,0.135,0.1352,0,0,0,0,0,0,0.1007,0.1014,0.1075,0.105,0.1058,0.1096,0.111,0.1117,0.1151,0.117,0.1179,0.1176,0.1212,0.122,0.1265,0.1302,0.1259,0.1261,0.1348,0.135,0.1351,0.1405,0,0,0,0,0,0,0.1005,0.1013,0.103,0.105,0.1059,0.1101,0.1109,0.1117,0.1153,0.1159,0.12,0.1207,0.1213,0.1262,0.1267,0.1305,0.1263,0.1347,0.1349,0.135,0.1402,0.1408,0.1413,0,0,0,0,0,0.1002,0.1015,0.1031,0.1039,0.1079,0.1102,0.1107,0.1136,0.1154,0.117,0.1202,0.1207,0.1278,0.1264,0.1271,0.131,0.1346,0.1348,0.135,0.1399,0.1407,0.1413,0,0,0,0,0,0,0.0988,0.1021,0.104,0.1064,0.1091,0.1111,0.113,0.115,0.1186,0.1201,0.122,0.1229,0.1279,0.1284,0.1268,0.134,0.1313,0.1317,0.1348,0.1355,0.1361,0.1357,0.1265,0,0,0,0,0,0.0993,0.1015,0.1044,0.1067,0.1082,0.1112,0.113,0.1152,0.1181,0.1199,0.123,0.1261,0.1288,0.1314,0.1332,0.1375,0.1379,0.1403,0.1409,0.1414,0.1415,0.1453,0.1462,0.1359,0.1359,0.1359,0,0,0.0991,0.1016,0.1028,0.1067,0.109,0.1113,0.1126,0.1161,0.1192,0.1202,0.126,0.1281,0.1301,0.1347,0.1371,0.1363,0.1447,0.1417,0.1422,0.142,0.1456,0.1466,0.1475,0.1361,0.1361,0.136,0,0,0.0993,0.1027,0.1043,0.1069,0.1113,0.113,0.1147,0.1187,0.122,0.127,0.1286,0.1328,0.1376,0.1396,0.1411,0.1459,0.147,0.1475,0.1514,0.1551,0.156,0.1568,0.1591,0.16,0.1486,0.1487,0.1487,0,0.0992,0.1024,0.1051,0.1076,0.1102,0.1141,0.1165,0.1199,0.1253,0.1288,0.1298,0.1378,0.1396,0.145,0.147,0.1474,0.1495,0.1488,0.156,0.1567,0.1575,0.1596,0.1606,0.1489,0.1489,0.1489,0.1489,0,0.1002,0.1038,0.1052,0.1098,0.1124,0.1156,0.1201,0.1247,0.1294,0.1331,0.1406,0.1433,0.1485,0.1499,0.1503,0.1569,0.1568,0.1557,0.1543,0.1588,0.1608,0.1617,0.1494,0.1493,0.1492,0.1491,0,0,0.097,0.1044,0.1052,0.1084,0.1143,0.1164,0.1223,0.1285,0.1339,0.1399,0.1466,0.1517,0.155,0.1567,0.1586,0.1619,0.1688,0.1621,0.1622,0.1645,0.1775,0.1706,0.1709,0.1703,0.1705,0.1707,0.177,0,0.0974,0.1024,0.106,0.1112,0.1142,0.1199,0.1247,0.1311,0.1379,0.1453,0.1505,0.157,0.1573,0.1613,0.165,0.1681,0.1715,0.1671,0.1725,0.1726,0.1661,0.1717,0.1712,0.1777,0.1779,0.178,0.1781,0,0.0972,0.101,0.106,0.1136,0.1153,0.1192,0.1287,0.1337,0.1442,0.1499,0.158,0.1626,0.1701,0.1686,0.1773,0.1754,0.1772,0.1782,0.1785,0.1705,0.1674,0.172,0.1798,0.1796,0.1795,0.1794,0.1793,0,0.0935,0.1009,0.1053,0.1079,0.1163,0.1209,0.126,0.136,0.1418,0.1539,0.1601,0.169,0.1749,0.1793,0.1843,0.1822,0.1922,0.1888,0.1835,0.183,0.1849,0.1839,0.1935,0.1935,0.1935,0.1934,0.1934,0,0.0921,0.0958,0.1049,0.1072,0.1135,0.1199,0.1283,0.1351,0.1456,0.1534,0.1629,0.1703,0.1783,0.1855,0.1875,0.1899,0.1957,0.1851,0.1848,0.1869,0.1862,0.1855,0.1845,0.1937,0.1936,0.1936,0.1935,0,0.0876,0.0936,0.0991,0.1087,0.1121,0.1168,0.1286,0.1343,0.1454,0.156,0.1603,0.1734,0.1837,0.1903,0.1976,0.1934,0.1959,0.1946,0.198,0.1976,0.1829,0.1821,0.1882,0.1881,0.1879,0.1878,0.1877,0,0.0855,0.0883,0.0987,0.1026,0.1077,0.1162,0.1216,0.133,0.1396,0.1575,0.1615,0.1756,0.1841,0.1887,0.1957,0.1995,0.197,0.1954,0.187,0.1836,0.1827,0.1821,0.1816,0.1874,0.1874,0.1873,0.1873,0,0.0816,0.0865,0.091,0.0988,0.1054,0.1122,0.1216,0.1253,0.1393,0.1502,0.1604,0.1674,0.1784,0.1845,0.1894,0.1913,0.1949,0.1937,0.1939,0.186,0.1827,0.1818,0.1814,0.1868,0.1869,0.1869,0.1869,0,0.0788,0.0812,0.0882,0.0946,0.1021,0.1072,0.1126,0.1212,0.1284,0.147,0.1506,0.1663,0.1774,0.1807,0.1859,0.1876,0.1836,0.1752,0.1762,0.1769,0.1705,0.1644,0.1638,0,0,0,0,0,0.0758,0.0785,0.0836,0.0905,0.0974,0.1022,0.1122,0.118,0.1314,0.1351,0.1425,0.153,0.1622,0.1697,0.1692,0.1813,0.184,0.1798,0.1746,0.1839,0.1845,0.1781,0,0,0,0,0,0,0.0741,0.0788,0.0814,0.0859,0.0897,0.0967,0.1027,0.1114,0.1142,0.1281,0.1339,0.1443,0.1551,0.1617,0.1666,0.1689,0.1627,0.1889,0.1886,0.1835,0.1841,0.1846,0.1783,0,0,0,0,0]},{"header":{"parameterUnit":"m.s-1","parameterCategory":2,"la1":30.2991,"la2":30.254,"lo1":-89.0895,"lo2":-89.0444,"dy":0.0017,"dx":0.0017,"nx":28,"ny":28,"refTime":"2024-12-03T03:00:00:Z","depth":"4","parameterNumber":3,"parameterNumberName":"V-component_of_CURRENTS"},"data":[0,0,0,0,0,0,0,0,0,0,0,0,0,0,0,0,0,0,0,0,0,0,0,0,0,0,0,0,0,0,0,0,0,0,0,0,0,0,0,0,0,0,0,0,0,0,0,0,0,0,0,0,0,0,0,0,0,0,0.0204,0.0203,0,0.0167,0.0167,0.0166,0.0128,0.0128,0.0127,0.0127,0.0059,0.0058,0.0057,0,0,0,0,0,0,0,0,0,0,0,0,0,0.0205,0.0205,0.0204,0.0203,0.0203,0.0167,0.0167,0.0166,0.0128,0.0128,0.0127,0.0126,0.006,0.0058,0.0056,0,0,0,0,0,0,0,0,0,0,0,0,0,0.0189,0.0205,0.0204,0.018,0.0178,0.0167,0.0167,0.0166,0.0128,0.0128,0.0127,0.0126,0.006,0.0058,0.0056,0.0057,0,0,0.005,0.0049,0,0,0,0,0,0,0,0,0.019,0.0189,0.0184,0.0182,0.0179,0.0152,0.0142,0.0128,0.0128,0.0146,0.0127,0.0126,0.0089,0.0084,0.0078,0.0054,0.0051,0.005,0.0049,0.0048,0.0047,0,0,0,0,0,0,0,0.0191,0.019,0.0188,0.0184,0.0181,0.0159,0.0157,0.0139,0.012,0.0145,0.0142,0.0139,0.0087,0.008,0.0076,0.005,0.005,0.0048,0.0047,0.0046,-0.0002,-0.0002,0,0,0,0,0,0,0.02,0.0192,0.019,0.0187,0.0184,0.016,0.0157,0.0161,0.0121,0.0115,0.014,0.0138,0.0084,0.0079,0.0074,0.0069,0.0048,0.0046,0.0045,-0.0002,-0.0002,-0.0002,0,0,0,0,0,0,0.0201,0.0201,0.0191,0.0189,0.0186,0.0161,0.0166,0.0161,0.0152,0.0118,0.0111,0.0136,0.0083,0.0076,0.0063,0.0066,0.0045,0.0043,-0.0002,-0.0002,-0.0002,0.0062,0,0,0,0,0,0,0.0201,0.0201,0.0208,0.019,0.0187,0.019,0.0166,0.016,0.0152,0.0149,0.0113,0.0106,0.0082,0.0066,0.0061,0.0063,0.0041,-0.0002,-0.0002,-0.0002,0.006,0.0064,0.0068,0,0,0,0,0,0.0201,0.0219,0.0209,0.0208,0.0197,0.0191,0.0187,0.0166,0.0153,0.0154,0.0131,0.0107,0.0061,0.0065,0.0059,0.006,-0.0002,-0.0002,-0.0002,0.0058,0.0064,0.0068,0,0,0,0,0,0,0.0226,0.0216,0.0205,0.0219,0.0206,0.0184,0.0187,0.017,0.0153,0.015,0.0114,0.0107,0.0093,0.0068,0.0073,0.0044,0.0022,0.0021,0.007,0.0075,0.0079,0.0098,0.004,0,0,0,0,0,0.0235,0.0244,0.0226,0.0237,0.0234,0.021,0.0205,0.019,0.0173,0.0164,0.0138,0.0109,0.0088,0.0076,0.0053,0.0044,0.0017,0.0036,0.004,0.0044,0.0054,0.0022,0.0025,-0.0003,-0.0003,-0.0003,0,0,0.025,0.0244,0.025,0.0243,0.0232,0.0236,0.0205,0.0203,0.0205,0.016,0.0155,0.0125,0.0089,0.0078,0.0068,0.0057,0.0035,0.0044,0.0047,0.0055,0.0022,0.0025,0.0028,-0.0003,-0.0003,-0.0003,0,0,0.0281,0.0277,0.0291,0.0285,0.0271,0.0259,0.026,0.0238,0.0227,0.0217,0.0185,0.0163,0.0127,0.0106,0.009,0.0101,0.0058,0.0084,0.012,0.009,0.0092,0.0094,0.0057,0.0056,0.0085,0.0085,0.0085,0,0.0297,0.0312,0.0294,0.0303,0.0305,0.0272,0.0287,0.0274,0.025,0.0245,0.0222,0.0175,0.0142,0.0134,0.0133,0.0112,0.0084,0.0109,0.0097,0.0098,0.0098,0.0061,0.0058,0.0088,0.0087,0.0087,0.0087,0,0.0334,0.0345,0.0355,0.0356,0.0356,0.0365,0.0346,0.0341,0.0319,0.0299,0.0282,0.0238,0.0209,0.019,0.0165,0.0154,0.0128,0.0108,0.009,0.0106,0.0064,0.006,0.0092,0.0091,0.009,0.0089,0,0,0.0369,0.038,0.0382,0.0392,0.0385,0.0391,0.0399,0.0395,0.0401,0.0364,0.0367,0.0322,0.029,0.027,0.023,0.0202,0.0176,0.016,0.0157,0.0134,0.0101,0.0054,0.0044,0.0153,0.0152,0.0152,0.0068,0,0.04,0.0431,0.0429,0.0461,0.0474,0.0458,0.0472,0.0464,0.0442,0.0434,0.0388,0.0368,0.0322,0.0304,0.0273,0.02,0.0168,0.02,0.0081,0.0077,0.0042,0.0039,0.0152,0.0065,0.0064,0.0063,0.0063,0,0.043,0.0448,0.0486,0.0511,0.0518,0.0534,0.0549,0.0557,0.0538,0.0518,0.049,0.0445,0.0402,0.0357,0.0254,0.0274,0.0196,0.0138,0.0132,0.0066,0.0022,0.0045,0.0055,0.0055,0.0056,0.0056,0.0057,0,0.0451,0.0485,0.0519,0.0527,0.0552,0.057,0.0586,0.0582,0.0588,0.0569,0.0556,0.0504,0.0461,0.0376,0.0243,0.0247,0.0119,0.0108,-0.0005,-0.0009,0.0032,0.003,0.0038,0.0038,0.0038,0.0039,0.0039,0,0.0474,0.0501,0.0533,0.0552,0.0594,0.0606,0.0642,0.0642,0.0646,0.0648,0.06,0.0573,0.0461,0.0368,0.0262,0.0108,0.0128,0.0002,-0.0033,0.0058,0.0061,0.0028,0.0028,0.0035,0.0036,0.0037,0.0037,0,0.0477,0.0501,0.054,0.0585,0.0601,0.063,0.0673,0.0695,0.0694,0.0694,0.0685,0.0614,0.0488,0.0363,0.0207,0.0118,-0.0013,-0.0075,0.0027,-0.0002,-0.0123,-0.0119,-0.0193,-0.0195,-0.0197,-0.0199,-0.0201,0,0.0479,0.05,0.0558,0.0583,0.0603,0.065,0.0681,0.0708,0.0724,0.0706,0.0699,0.0594,0.0522,0.0282,0.0148,-0.0054,-0.0088,-0.0151,-0.0126,-0.0119,-0.0146,-0.0139,-0.0132,-0.0204,-0.0204,-0.0205,-0.0205,0,0.0476,0.0498,0.0529,0.0582,0.0622,0.0671,0.0716,0.073,0.0752,0.0752,0.0692,0.0574,0.0427,0.0261,0.0092,-0.0049,-0.01,-0.0172,-0.0168,-0.0145,-0.0133,-0.0156,-0.0147,-0.0212,-0.0211,-0.021,-0.021,0,0.0465,0.0482,0.0525,0.0568,0.0623,0.0672,0.0704,0.072,0.0738,0.0723,0.0695,0.0557,0.0482,0.0259,0.0108,-0.0041,-0.0073,-0.0107,-0.0107,-0.0101,-0.0053,-0.0023,-0.0098,0,0,0,0,0,0.0446,0.0465,0.0507,0.0559,0.0618,0.0656,0.0714,0.0743,0.0763,0.0721,0.0712,0.0575,0.0349,0.0261,0.0103,0.0062,-0.0104,-0.013,-0.0145,-0.025,-0.0242,-0.0207,0,0,0,0,0,0,0.043,0.0466,0.0494,0.0544,0.0582,0.0649,0.0694,0.0714,0.0696,0.0695,0.0581,0.0529,0.0315,0.0435,0.0097,0.0052,0.002,-0.0229,-0.0233,-0.0255,-0.0248,-0.0241,-0.0202,0,0,0,0,0]}]]